Location: McFarlands Corners
(41.4117°N, 81.3382°W)
Time: 14:11:57
(UTC+00:00)

Tiros 1 despin weight - Pass Details

Date: 08 November 2024
Orbit: 570 x 610 km, 48.2° (Epoch: 01 December)

Event Time Altitude Azimuth Distance (km) Brightness Sun altitude
Exits shadow 10:01:19 - 187° (S) 2,088 ? -23.6°
Reaches altitude 10° 10:01:51 10° 182° (S) 1,928 ? -23.5°
Maximum altitude 10:05:04 20° 136° (SE) 1,391 ? -22.9°
Drops below altitude 10° 10:08:16 10° 89° (E) 1,916 ? -22.3°
Sets 10:11:01 0° 72° (ENE) 2,811 ? -21.8°
